Location: Asheville, NC
(35.6000°N, 82.5500°W)
Time: 21:05:22
(UTC-05:00)

Vanguard 1 - Pass Details

Date: 11 December 2017
Orbit: 649 x 3834 km, 34.2° (Epoch: 21 January)

Event Time Altitude Azimuth Distance (km) Brightness Sun altitude
Rises 11:58:45 0° 260° (W) 7,605 14.6 31.1°
Reaches altitude 10° 12:04:25 10° 260° (W) 6,249 14.3 31.2°
Maximum altitude 12:22:27 84° 176° (S) 2,125 12.4 31.3°
Drops below altitude 10° 12:31:49 10° 89° (E) 3,492 12.9 31.3°
Sets 12:34:05 0° 88° (E) 4,190 13.3 31.3°
